User: anonymous   Login
Location: ?????
(54.9266°N, 38.5527°E)
Time: 19:09:20
(UTC+00:00)
Language:

NOSS 2-2 (E) - Orbit

View from above orbital plane
View from above orbital plane
View from above satellite
View from above satellite

Ground track
Ground track

The orbit data is extracted from the following two-line orbital elements,

1 21809U 91076E   24165.60833664  .00003237  00000-0  33702-3 0  9990
2 21809  63.3075 304.9737 0903501  61.0719 307.7878 13.48721232  5010
Epoch (UTC): 13 June 2024 14:36:00
Eccentricity: 0.0903501
inclination: 63.3075°
perigee height: 403 km
apogee height: 1750 km
right ascension of ascending node: 304.9737°
argument of perigee: 61.0719°
revolutions per day: 13.48721232
mean anomaly at epoch: 307.7878°
orbit number at epoch: 501

The dashed part of the orbit path shows where the satellite is in the earth's shadow,  

DLR